Terminal Aerodrome Forecast
Issued by NWS New Orleans/Baton Rouge, LA

Home | Current Version | Previous Version | Text Only | Print | Product List | Glossary On
Versions: 1 2 3 4 5 6 7 8 9 10 11 12 13 14 15 16 17 18 19 20 21 22 23 24
138
FTUS44 KLIX 210214 AAA
TAFBTR
TAF AMD
KBTR 210214Z 2102/2124 28020G28KT 2SM +RA BR BKN009 BKN014 OVC021
     FM210900 29004KT 5SM -SHRA OVC015
     FM211300 33004KT 4SM -SHRA BR OVC008
     FM211700 28005KT P6SM SCT015 BKN035=

USA.gov is the U.S. government's official web portal to all federal, state and local government web resources and services.